Location: Newark
(54.6833°N, 25.2833°E)
Time: 16:17:10
(UTC+00:00)

Altair - All Passes

Search period start: 12 November 2019 00:00
Search period end: 22 November 2019 00:00
Orbit: 1502 x 1682 km, 47.2° (Epoch: 12 November)

Date Brightness Start Highest point End Pass type
(mag) Time Alt. Az. Time Alt. Az. Time Alt. Az.
12 Nov - 02:57:24 10° SSW 03:05:05 31° SE 03:12:53 10° E visible
12 Nov - 04:59:32 10° WSW 05:08:20 52° SSE 05:17:23 10° E visible
12 Nov - 07:03:13 10° W 07:12:06 52° SSW 07:21:17 10° ESE daylight
12 Nov - 09:07:33 10° W 09:15:27 32° SW 09:23:35 10° SSE daylight
12 Nov - 11:16:17 10° WSW 11:17:41 10° SW 11:19:06 10° SW daylight
13 Nov - 02:32:33 10° SSW 02:40:03 30° SE 02:47:40 10° E visible
13 Nov - 04:34:29 10° WSW 04:43:14 51° SSE 04:52:14 10° E visible
13 Nov - 06:38:07 10° W 06:47:00 53° S 06:56:10 10° ESE daylight
13 Nov - 08:42:22 10° W 08:50:24 33° SSW 08:58:40 10° SSE daylight
13 Nov - 10:49:49 10° WSW 10:52:44 12° SW 10:55:40 10° SW daylight
14 Nov - 02:07:43 10° SSW 02:15:03 28° SE 02:22:27 10° E visible
14 Nov - 04:09:27 10° SW 04:18:10 50° SSE 04:27:05 10° E visible
14 Nov - 06:13:01 10° W 06:21:55 54° S 06:31:04 10° ESE daylight
14 Nov - 08:17:13 10° W 08:25:21 35° SSW 08:33:43 10° SSE daylight
14 Nov - 10:23:58 10° WSW 10:27:46 13° SW 10:31:37 10° SSW daylight
15 Nov - 01:42:55 10° SSW 01:50:02 26° SE 01:57:13 10° E visible
15 Nov - 03:44:25 10° SW 03:53:05 49° SSE 04:01:56 10° E visible
15 Nov - 05:47:55 10° W 05:56:48 54° S 06:05:57 10° ESE daylight
15 Nov - 07:52:05 10° W 08:00:17 37° SSW 08:08:45 10° SSE daylight
15 Nov - 09:58:19 10° W 10:02:48 14° SW 10:07:20 10° SSW daylight
16 Nov - 01:18:09 10° S 01:25:02 25° SE 01:31:58 10° E visible
16 Nov - 03:19:24 10° SW 03:28:00 47° SSE 03:36:47 10° E visible
16 Nov - 05:22:50 10° W 05:31:42 55° S 05:40:50 10° ESE daylight
16 Nov - 07:26:56 10° W 07:35:15 38° SSW 07:43:46 10° SE daylight
16 Nov - 09:32:48 10° W 09:37:49 16° SW 09:42:55 10° SSW daylight
17 Nov - 00:53:25 10° S 01:00:03 23° SE 01:06:42 10° E visible
17 Nov - 02:54:23 10° SW 03:02:56 46° SSE 03:11:38 10° E visible
17 Nov - 04:57:44 10° WSW 05:06:36 55° S 05:15:42 10° ESE visible
17 Nov - 07:01:48 10° W 07:10:10 40° SSW 07:18:47 10° SE daylight
17 Nov - 09:07:22 10° W 09:12:50 17° SW 09:18:24 10° SSW daylight
18 Nov - 00:28:43 10° S 00:35:03 21° SE 00:41:25 10° E visible
18 Nov - 02:29:23 10° SW 02:37:52 44° SSE 02:46:29 10° E visible
18 Nov - 04:32:39 10° WSW 04:41:31 55° S 04:50:35 10° ESE visible
18 Nov - 06:36:41 10° W 06:45:06 41° SSW 06:53:46 10° SE daylight
18 Nov - 08:42:01 10° W 08:47:51 19° SW 08:53:49 10° S daylight
19 Nov - 00:04:04 10° S 00:10:05 20° SE 00:16:05 10° E visible
19 Nov - 02:04:24 10° SW 02:12:49 43° SSE 02:21:19 10° E visible
19 Nov - 04:07:33 10° WSW 04:16:25 55° S 04:25:28 10° ESE visible
19 Nov - 06:11:33 10° W 06:20:02 43° SSW 06:28:45 10° SE daylight
19 Nov - 08:16:41 10° W 08:22:51 20° SW 08:29:11 10° S daylight
19 Nov - 23:39:27 10° S 23:45:06 18° SE 23:50:45 10° E visible
20 Nov - 01:39:25 10° SW 01:47:45 41° SSE 01:56:10 10° E visible
20 Nov - 03:42:28 10° WSW 03:51:19 55° S 04:00:20 10° ESE visible
20 Nov - 05:46:26 10° W 05:54:58 44° SSW 06:03:43 10° SE daylight
20 Nov - 07:51:23 10° W 07:57:51 22° SW 08:04:29 10° S daylight
20 Nov - 23:14:55 10° SSE 23:20:08 17° SE 23:25:21 10° E visible
21 Nov - 01:14:27 10° SW 01:22:42 39° SSE 01:31:01 10° E visible
21 Nov - 03:17:23 10° WSW 03:26:14 55° S 03:35:12 10° ESE visible
21 Nov - 05:21:19 10° W 05:29:54 46° SSW 05:38:41 10° SE visible
21 Nov - 07:26:07 10° W 07:32:52 23° SW 07:39:45 10° S daylight
21 Nov - 22:50:27 10° SSE 22:55:10 15° SE 22:59:53 10° E visible
